Regional Weather Roundup
Issued by NWS Wakefield, VA

Home | Current Version | Previous Version | Graphics & Text | Print | Product List | Glossary On
Versions: 1 2 3 4 5 6 7 8 9 10 11 12 13 14 15 16 17 18 19 20 21 22 23 24 25 26 27 28 29
000
ASUS41 KAKQ 250810
RWRAKQ

REGIONAL WEATHER ROUNDUP
NATIONAL WEATHER SERVICE WAKEFIELD VA
400 AM EDT SAT OCT 25 2014

Note: "fair" indicates few or no clouds below 12,000 feet with no
significant weather and/or obstructions to visibility. * = Denotes
station may not report precipitation (e.g., rain,snow,etc.),
thunder or fog.

VAZ042-051-052>054-056-250900-
NORTHERN VIRGINIA

CITY           SKY/WX    TMP DP  RH WIND       PRES   REMARKS
WASH NATIONAL  CLEAR     51  39  63 N6        29.96F
DULLES         CLEAR     42  37  82 N3        29.97S
FORT BELVOIR   CLEAR     38  37  96 E2        29.97S
QUANTICO       CLEAR     43  40  89 NW6       29.97F
FREDERICKSBRG* CLEAR     40  40 100 CALM      29.97R
STAFFORD*      CLEAR     35  35 100 CALM      30.01R
WARRENTON      CLEAR     35  35 100 CALM      29.96S
CULPEPER*      CLEAR     36  36 100 CALM      29.98S FOG
MANASSAS*      CLEAR     37  37 100 CALM      29.97S
LEESBURG*      CLEAR     43  41  93 NW7       29.97F
WINCHESTER     CLEAR     43  32  65 CALM      29.97F
FRONT ROYAL*   SUNNY     41  36  81 CALM      29.97F
LURAY*         SUNNY     39  39 100 CALM      30.01S
$$

VAZ048-049-060>072-079>083-250900-
CENTRAL AND SOUTH CENTRAL VIRGINIA...AND NORTH CENTRAL NORTH CAROLINA

CITY           SKY/WX    TMP DP  RH WIND       PRES   REMARKS
RICHMOND       CLEAR     44  40  85 CALM      29.96S
CHESTERFIELD*    N/A    N/A N/A N/A MISG        N/A
PETERSBURG*    CLEAR     38  37  98 CALM      29.97S FOG
HANOVER        CLEAR     40  39  97 CALM      29.98S
TAPPAHANNOCK*  CLEAR     40  37  89 CALM      29.97S
CHARLOTTSVILLE CLEAR     42  36  79 CALM      29.97S
ORANGE*        CLEAR     36  36 100 CALM      29.98S
LOUISA*        CLEAR     36  36 100 CALM      29.96R
FARMVILLE*     CLEAR     39  39 100 CALM      29.96S
CREWE*         SUNNY     40  39  95 CALM      29.97S
FORT PICKETT*  SUNNY     46  44  95 CALM      29.97S
LUNENBURG*     SUNNY     48  45  88 NW5       29.96S
SOUTH HILL*    CLEAR     45  45 100 CALM      30.01S
LAWRENCEVILLE* SUNNY     47  46  96 CALM      29.96R
ROANOKE RAPIDS SUNNY     41  41 100 CALM      29.95F
RALEIGH        PTCLDY    42  40  92 CALM      29.97F
$$

VAZ088>098-250900-
SOUTHEAST VIRGINIA

CITY           SKY/WX    TMP DP  RH WIND       PRES   REMARKS
NORFOLK        CLEAR     56  45  66 N6        29.94F
VIRGINIA BEACH CLEAR     50  46  86 CALM      29.93F
NORFOLK NAVAL  PTCLDY    56  43  61 N8        29.96F
WEST POINT*    CLEAR     42  39  90 CALM      29.97S
NEWPORT NEWS   CLEAR     45  43  93 CALM      29.95F FOG
LANGLEY AFB    CLEAR     48  48  99 NW5       29.95F
FORT EUSTIS    CLEAR     49  44  83 CALM      29.94F
WILLIAMSBURG*  CLEAR     48  46  93 N5        29.96F
HR EXEC AP*    SUNNY     37  34  87 CALM      29.97F
FRANKLIN*      CLEAR     43 N/A N/A CALM      29.97S
WAKEFIELD      CLEAR     42  39  89 CALM      29.96F
$$

VAZ020-022-025-037-045-250900-
WEST CENTRAL AND SOUTHWEST VIRGINIA

CITY           SKY/WX    TMP DP  RH WIND       PRES   REMARKS
STAUNTON*      CLEAR     33  31  92 CALM      30.03R
HOT SPRINGS VA CLEAR     43  35  74 NW12      30.00F
LYNCHBURG      CLEAR     40  37  89 CALM      30.00R
DANVILLE       CLEAR     41  39  93 CALM      29.99S
SOUTH BOSTON*  NOT AVBL
MARTINSVILLE   CLEAR     35  35 100 CALM      30.03S
ROANOKE        CLEAR     45  37  73 W7        30.04S
BLACKSBURG     CLEAR     39  39 100 CALM      30.06S
DUBLIN*        CLEAR     39  37  93 SW5       30.06F
MARION*        CLEAR     38  36  91 W5        30.09S
HILLSVILLE*    CLEAR     45  35  68 W5        30.04F
RICHLANDS*     SUNNY     45  40  84 CALM      30.07S
WISE*          CLEAR     43  36  75 SW3       30.08F
ABINGDON*      CLEAR     38  37  94 CALM      30.08S
$$

MDZ021>025-VAZ099-100-250900-
SOUTHERN MARYLAND AND THE DELMARVA PENINSULA

CITY           SKY/WX    TMP DP  RH WIND       PRES   REMARKS
PATUXENT RIVER CLEAR     53  42  66 NW10      29.94F
BAY BRIDGE APT   N/A     52  39  62 NW5       29.94S
LEONARDTOWN    CLEAR     43  36  75 CALM      29.96S
DOVER          CLEAR     49  40  73 W7        29.89F
GEORGETOWN     PTCLDY    50  40  68 CALM      29.93S
EASTON         CLEAR     51  44  75 CALM      29.97S
CAMBRIDGE      CLEAR     55  41  58 NW7       29.93S
SALISBURY      CLEAR     50  40  68 CALM      29.92F
OCEAN CITY     CLEAR     50  40  68 NW8       29.91S
WALLOPS ISLAND CLEAR     52  44  74 NW7       29.92F
ACCOMACK*      CLEAR     48  43  81 NW6       29.93S
$$

NCZ012>017-030>032-250900-
EASTERN NORTH CAROLINA

CITY           SKY/WX    TMP DP  RH WIND       PRES   REMARKS
ELIZABETH CITY CLEAR     53  46  77 NW9       29.95S
AHOSKIE*       CLEAR     41  40  97 CALM      29.96S
EDENTON*       CLEAR     45  44  95 N3        29.95S
CURRITUCK*     CLEAR     50  44  80 NW3       29.95F
KILL DEVIL HLS CLEAR     57  49  76 NW3       29.93S
MANTEO         CLEAR     49  48  97 CALM      29.94F
CAPE HATTERAS  CLEAR     50  50 100 N3        29.94F
TARBORO*       FOG       40  40  97 CALM      29.97S VSB 1/2
GOLDSBORO      FOG       46  46 100 CALM      29.95S VSB 1/2
WASHINGTON     CLEAR     45  44  97 CALM      29.95F
GREENVILLE     LGT RAIN  45  45 100 CALM      29.98S VSB 3/4
NEW BERN       CLEAR     48  45  89 S3        29.97F
WILMINGTON     CLEAR     49  47  93 CALM      29.96F
$$

VAZ048-250900-
ELSEWHERE

CITY           SKY/WX    TMP DP  RH WIND       PRES   REMARKS
HARRISBURG PA  CLEAR     46  39  76 CALM      29.92F
BALTIMORE      CLEAR     45  38  76 SW3       29.94S
ANNAPOLIS      CLEAR     49  38  65 W6        29.94S
ANDREWS AFB    CLEAR     51  38  61 NW6       29.95S
WILMINGTON DE  CLEAR     48  39  71 SW3       29.92S
PHILADELPHIA   CLEAR     51  36  56 CALM      29.91S
WILDWOOD NJ*   CLEAR     55  41  58 NW8       29.91F
ATLANTIC CITY  CLEAR     45  39  79 NW7       29.90S
HENDERSON NC   CLEAR     51  38  62 NW5       29.97S
GREENSBORO     CLEAR     44  40  85 CALM      29.98F
ROCKY MOUNT    CLEAR     44  43  96 CALM      29.96S FOG
FAYETTEVILLE   CLEAR     47  45  93 CALM      29.96F
CHARLOTTE      CLEAR     47  42  83 N7        30.01S
$$

VAZ100-250900-
MARINE

STATION/POSITION TIME  TEMP    WIND        PRES    WAVE   SWELL
                       AIR SEA DIR/SP/G            HT/PER HT/PER
                 (UTC) (F)     (DEG/KT/KT) (MB)    (FT/S) (FT/S)
44066 TX TWR #4  0800   61 65  340/ 17/ 21 1009.5R   3/10   2/10
CAPE MAY NJ      0800   57 62  320/  8/ 15 1012.2F
LEWES DE         0800   57 61  320/ 12/ 14 1012.6F
15NM E FENWICK I 0800   61 64  320/ 19/ 23 1011.9F   4/ 4   2/10
OCEAN-CITY-INLET 0800   54 60  340/ 11/ 13 1012.4R
WACHAPREAGUE VA  0800   52 59   CALM  /  3 1013.4S
THOMAS POINT MD  0800   54 61  300/  8/ 10 1014.9F
GOOSES REEF MD   0800   58     340/ 14/ 16 1014.2F
COVE POINT MD    0800   58     350/ 15/ 17 1013.7S
SOLOMONS ISLAND  0800      63                N/A
BISHOPS HEAD MD  0800   53 57  330/  7/  9 1012.9F
PINEY POINT MD   0800          340/ 12/ 14   N/A
POTOMAC MD       0800   58     340/ 14/ 17 1013.3S
CAMBRIDGE MD     0800   57 60  300/  8/ 11 1013.4S
LEWISETTA VA     0800   58 59  330/  8/ 11 1013.7S
RAPPAHANNOCK LGT 0800          330/ 18/ 20 1014.1R
STINGRAY PT      0800   57     330/ 10/ 12 1014.6S
YORK RVR RNG VA  0800   57     350/  9/ 11 1013.5S
YORKTOWN VA      0800   56 64  330/  9/ 10 1013.8F
JAMESTOWN VA     0800   53     350/  4/  6   N/A
DOMINION TERM VA 0800   58     340/  4/  8 1014.0F
KIPTOPEKE VA     0800      66   10/  6/  8   N/A
CHES BAY BRIDGE  0800   61 64  340/ 15/ 17 1013.3F
CHESAPEAKE LGHT  0700   62     350/ 19/ 20 1014.2F
WILLOUBY STN VA  0800   56     350/  8/  8 1012.6F
S CRANEY ISL VA  0800          310/  5/  7 1013.7F
CAPE HENRY BUOY  0800      67                N/A     3/ 3
1ST LANDING BUOY 0800   62     350/ 14/ 17 1013.5S
CAPE CHARLES BUO 0800      66                N/A     2/10   2/10
64NM E OF VA BCH 0800   64 66  330/ 14/ 17 1012.6F   4/ 5   2/ 9
DUCK PIER NC     0800   57 66  330/ 12/ 13 1012.9S
44100 DUCK FRF   0800      67                N/A     3/ 6
44056 DUCK FRF   0800                        N/A     3/ 9
OREGON INLET NC  0800   58 64  280/  5/  6 1013.6S
HATTERAS NC      0800   63 65  330/  6/  6 1014.2F
DIAMOND SHLS NC  0800   65     330/ 12/ 14 1014.0F   3/ 9   2/ 9
CAPE LOOKOUT NC  0700   62     310/  7/  9 1014.4F
$$



USA.gov is the U.S. government's official web portal to all federal, state and local government web resources and services.